Terug naar catalogus

STARLINK-32134

ActiefCommunicatieVLEO
NORAD 60300·PAYLOAD·🇺🇸 United States

Gelanceerd Jul 28, 2024 vanaf Cape Canaveral Space Force Station

Loading…

Volgende Passages (komende 24 uur)

TLE

VersSource: CelesTrak SupGP

Epoch: Sep 14, 2026, 22:33 UTC

1 60300C 24132Y   26257.94006944  .00043499  00000+0  12851-2 0  2573
2 60300  53.1564 251.3572 0001246 101.1459 272.8498 15.34371977    12

Volg STARLINK-32134 in realtime met AllMySat

Download on the App Store